Fullerton, CA

1:55 PM PST on January 21, 2017 (GMT -0800)
Fullerton

Weather History for KFUL - May, 2012

Change the Weather History Date:

Tuesday, May 15, 2012

  Actual Average Record
Temperature  
Mean Temperature 68 °F 66 °F  
Max Temperature 79 °F 75 °F 104 °F (2014)
Min Temperature 57 °F 58 °F 53 °F (2011)
Degree Days  
Heating Degree Days 0 1  
Month to date heating degree days 0 20  
Since 1 July heating degree days 860 1214  
Cooling Degree Days 3 2  
Month to date cooling degree days 55 30  
Year to date cooling degree days 166 82  
Growing Degree Days 18 (Base 50)    
Moisture  
Dew Point 52 °F    
Average Humidity 57    
Maximum Humidity 77    
Minimum Humidity 37    
Precipitation  
Precipitation 0.00 in 0.01 in 0.22 in (2015)
Month to date precipitation T 0.20  
Year to date precipitation 3.53 9.51  
Since 1 July precipitation 6.20  
Snow  
Snow 0.00 in - - ()
Month to date snowfall 0.0  
Year to date snowfall 0.0  
Snow Depth 0.00 in    
Sea Level Pressure  
Sea Level Pressure 29.91 in    
Wind  
Wind Speed 5 mph (SE)    
Max Wind Speed 10 mph    
Max Gust Speed 14 mph    
Visibility 10 miles    
Events      
T = Trace of Precipitation, MM = Missing Value Source: NWS Daily Summary

Daily Weather History Graph

Daily Weather History Graph

Search for Another Location

Airport or City:

Trip Planner

Search our weather history database for the weather conditions in past years. The results will help you decide how hot, cold, wet, or windy it might be!

Date:

Astronomy

May. 15, 2012 Rise Set
Actual Time 5:50 AM PDT 7:46 PM PDT
Civil Twilight 5:22 AM PDT 8:14 PM PDT
Nautical Twilight 4:49 AM PDT 8:47 PM PDT
Astronomical Twilight 4:13 AM PDT 9:23 PM PDT
Moon 2:41 AM PDT (5/15) 3:20 PM PDT (5/15)
Length of Visible Light 14h 51m
Length of Day
13h 56m
Waning Crescent, 23% of the Moon is Illuminated
May 15
Waning Crescent
May 20
New
May 28
First Quarter
Jun 4
Full
Jun 11
Last Quarter

Hourly Weather History & Observations

Time (PDT) Temp. Dew Point Humidity Pressure Visibility Wind Dir Wind Speed Gust Speed Precip Events Conditions
12:53 AM 62.1 °F 53.1 °F 72% 29.96 in 10.0 mi ESE 3.5 mph - N/A   Clear
1:53 AM 61.0 °F 52.0 °F 72% 29.94 in 10.0 mi East 5.8 mph - N/A   Clear
2:53 AM 60.1 °F 50.0 °F 69% 29.93 in 10.0 mi ENE 4.6 mph - N/A   Clear
3:53 AM 59.0 °F 50.0 °F 72% 29.93 in 10.0 mi East 3.5 mph - N/A   Clear
4:53 AM 57.9 °F 50.0 °F 75% 29.93 in 10.0 mi East 4.6 mph - N/A   Clear
5:53 AM 57.0 °F 50.0 °F 77% 29.94 in 10.0 mi ENE 3.5 mph - N/A   Clear
6:28 AM 59.0 °F 51.8 °F 77% 29.94 in 10.0 mi East 3.5 mph - N/A   Scattered Clouds
6:37 AM 59.0 °F 51.8 °F 77% 29.94 in 10.0 mi East 4.6 mph - N/A   Mostly Cloudy
6:53 AM 60.1 °F 51.1 °F 72% 29.94 in 10.0 mi East 4.6 mph - N/A   Scattered Clouds
7:00 AM 60.8 °F 51.8 °F 72% 29.94 in 10.0 mi East 4.6 mph - N/A   Mostly Cloudy
7:48 AM 62.6 °F 53.6 °F 72% 29.95 in 10.0 mi East 4.6 mph - N/A   Partly Cloudy
7:53 AM 63.0 °F 53.1 °F 70% 29.95 in 10.0 mi Calm Calm - N/A   Clear
8:53 AM 64.9 °F 52.0 °F 63% 29.95 in 10.0 mi Variable 4.6 mph - N/A   Partly Cloudy
9:53 AM 69.1 °F 52.0 °F 54% 29.94 in 10.0 mi Calm Calm - N/A   Clear
10:53 AM 73.9 °F 52.0 °F 46% 29.93 in 10.0 mi Variable 3.5 mph - N/A   Clear
11:53 AM 73.9 °F 53.1 °F 48% 29.92 in 10.0 mi SSW 6.9 mph - N/A   Clear
12:53 PM 75.0 °F 53.1 °F 46% 29.91 in 10.0 mi SW 9.2 mph - N/A   Clear
1:53 PM 75.9 °F 51.1 °F 42% 29.90 in 10.0 mi South 5.8 mph - N/A   Clear
2:53 PM 78.1 °F 50.0 °F 37% 29.88 in 10.0 mi SW 9.2 mph - N/A   Clear
3:53 PM 78.1 °F 52.0 °F 40% 29.86 in 10.0 mi SSW 6.9 mph - N/A   Clear
4:53 PM 77.0 °F 52.0 °F 42% 29.85 in 10.0 mi SSW 8.1 mph - N/A   Clear
5:53 PM 77.0 °F 51.1 °F 40% 29.85 in 10.0 mi South 5.8 mph - N/A   Clear
6:53 PM 73.9 °F 51.1 °F 45% 29.85 in 10.0 mi South 8.1 mph - N/A   Clear
7:53 PM 73.0 °F 45.0 °F 37% 29.86 in 10.0 mi Variable 3.5 mph - N/A   Clear
8:53 PM 70.0 °F 48.9 °F 47% 29.88 in 10.0 mi Calm Calm - N/A   Clear
9:53 PM 69.1 °F 52.0 °F 54% 29.89 in 10.0 mi SSE 3.5 mph - N/A   Clear
10:53 PM 66.9 °F 54.0 °F 63% 29.90 in 10.0 mi Calm Calm - N/A   Clear
11:53 PM 66.0 °F 55.0 °F 68% 29.90 in 10.0 mi SE 3.5 mph - N/A   Clear